Weather History for Millville, NJ

Change the Weather History Date:

Monday, February 18, 2013

  Actual Average Record
Temperature  
Mean Temperature 28 °F -  
Max Temperature 36 °F 43 °F 71 °F (1976)
Min Temperature 19 °F 26 °F -3 °F (1979)
Degree Days  
Heating Degree Days 38    
Moisture  
Dew Point 8 °F    
Average Humidity 45    
Maximum Humidity 63    
Minimum Humidity 31    
Precipitation  
Precipitation 0.00 in - - ()
Sea Level Pressure  
Sea Level Pressure 30.25 in    
Wind  
Wind Speed 12 mph (West)    
Max Wind Speed 20 mph    
Max Gust Speed 31 mph    
Visibility 10 miles    
Events      
Averages and records for this station are not official NWS values.
T = Trace of Precipitation, MM = Missing Value Source: NWS Daily Summary

Daily Weather History Graph

Daily Weather History Graph

Search for Another Location

Airport:

Trip Planner

Search our weather history database for the weather conditions in past years. The results will help you decide how hot, cold, wet, or windy it might be!

Date:

Astronomy

Feb. 18, 2013 Rise Set
Actual Time 6:48 AM EST 5:40 PM EST
Civil Twilight 6:20 AM EST 6:08 PM EST
Nautical Twilight 5:49 AM EST 6:39 PM EST
Astronomical Twilight 5:18 AM EST 7:10 PM EST
Moon 11:25 AM EST (2/18) 1:24 AM EST (2/18)
Length of Visible Light 11h 47m
Length of Day
10h 52m
First Quarter, 58% of the Moon is Illuminated
Feb 18
First Quarter
Feb 25
Full
Mar 4
Last Quarter
Mar 11
New
Mar 19
First Quarter

Hourly Weather History & Observations

Time (EST) Temp. Windchill Dew Point Humidity Pressure Visibility Wind Dir Wind Speed Gust Speed Precip Events Conditions
12:54 AM 23.0 °F 9.2 °F 1.0 °F 39% 30.13 in 10.0 mi WNW 17.3 mph 26.5 mph N/A   Mostly Cloudy
1:54 AM 23.0 °F 8.3 °F 1.9 °F 40% 30.14 in 10.0 mi WNW 19.6 mph 31.1 mph N/A   Clear
2:54 AM 21.9 °F 8.7 °F 3.0 °F 44% 30.17 in 10.0 mi WNW 15.0 mph 25.3 mph N/A   Clear
3:54 AM 21.9 °F 7.3 °F 3.0 °F 44% 30.18 in 10.0 mi WNW 18.4 mph 21.9 mph N/A   Clear
4:54 AM 21.0 °F 10.6 °F 3.9 °F 48% 30.21 in 10.0 mi WNW 9.2 mph - N/A   Clear
5:54 AM 21.0 °F 9.9 °F 5.0 °F 50% 30.25 in 10.0 mi West 10.4 mph - N/A   Clear
6:54 AM 19.9 °F 10.1 °F 6.1 °F 55% 30.28 in 10.0 mi WNW 8.1 mph - N/A   Clear
7:54 AM 23.0 °F 11.1 °F 6.1 °F 48% 30.31 in 10.0 mi WNW 12.7 mph - N/A   Clear
8:54 AM 25.0 °F 12.6 °F 6.1 °F 45% 30.32 in 10.0 mi WNW 15.0 mph 23.0 mph N/A   Clear
9:54 AM 27.0 °F 15.2 °F 6.1 °F 41% 30.33 in 10.0 mi West 15.0 mph - N/A   Clear
10:54 AM 30.0 °F 20.0 °F 7.0 °F 38% 30.34 in 10.0 mi WNW 12.7 mph 20.7 mph N/A   Clear
11:54 AM 32.0 °F 23.0 °F 8.1 °F 37% 30.32 in 10.0 mi West 11.5 mph - N/A   Clear
12:54 PM 35.1 °F 27.4 °F 7.0 °F 31% 30.28 in 10.0 mi NW 10.4 mph 17.3 mph N/A   Clear
1:54 PM 36.0 °F 28.5 °F 9.0 °F 33% 30.26 in 10.0 mi WSW 10.4 mph - N/A   Clear
2:54 PM 36.0 °F 27.1 °F 8.1 °F 31% 30.26 in 10.0 mi WSW 13.8 mph 18.4 mph N/A   Clear
3:54 PM 36.0 °F 29.0 °F 8.1 °F 31% 30.25 in 10.0 mi WSW 9.2 mph - N/A   Clear
4:54 PM 35.1 °F 30.1 °F 9.0 °F 34% 30.25 in 10.0 mi West 5.8 mph - N/A   Clear
6:54 PM 27.0 °F - 12.9 °F 56% 30.28 in 10.0 mi Calm Calm - N/A   Clear
7:54 PM 27.0 °F - 14.0 °F 58% 30.28 in 10.0 mi Calm Calm - N/A   Clear
8:54 PM 27.0 °F - 16.0 °F 63% 30.26 in 10.0 mi Calm Calm - N/A   Clear
9:54 PM 30.9 °F 27.5 °F 16.0 °F 54% 30.25 in 10.0 mi SSW 3.5 mph - N/A   Clear
10:54 PM 32.0 °F 28.7 °F 17.1 °F 54% 30.24 in 10.0 mi SSW 3.5 mph - N/A   Clear
11:54 PM 33.1 °F - 19.0 °F 56% 30.22 in 10.0 mi Calm Calm - N/A   Clear